Time,TemperatureF,DewpointF,PressureIn,WindDirection,WindDirectionDegrees,WindSpeedMPH,WindSpeedGustMPH,Humidity,HourlyPrecipIn,Conditions,Clouds,dailyrainin,SoftwareType,DateUTC
2013-04-11 00:02:00,34.0,28.0,-100.00,North,0,4.0,9.0,78,0.00,,,-99.99,,2013-04-11 05:02:00,
2013-04-11 00:13:00,34.0,28.0,-100.00,North,0,4.0,9.0,78,0.00,,,-99.99,,2013-04-11 05:13:00,
2013-04-11 00:22:00,34.0,28.0,-100.00,North,355,4.0,6.0,78,0.00,,,-99.99,,2013-04-11 05:22:00,
2013-04-11 00:32:00,34.0,28.0,-100.00,North,350,4.0,7.0,79,0.00,,,-99.99,,2013-04-11 05:32:00,
2013-04-11 00:42:00,34.0,28.0,-100.00,North,350,4.0,7.0,79,0.00,,,-99.99,,2013-04-11 05:42:00,
2013-04-11 00:52:00,34.0,28.0,-100.00,North,0,3.0,7.0,79,0.00,,,-99.99,,2013-04-11 05:52:00,
2013-04-11 01:02:00,34.0,28.0,-100.00,NNE,25,2.0,8.0,79,0.00,,,-99.99,,2013-04-11 06:02:00,
2013-04-11 01:12:00,34.0,28.0,-100.00,NNE,25,2.0,8.0,79,0.00,,,-99.99,,2013-04-11 06:12:00,
2013-04-11 01:22:00,34.0,28.0,-100.00,North,0,5.0,9.0,77,0.00,,,-99.99,,2013-04-11 06:22:00,
2013-04-11 01:32:00,34.0,28.0,-100.00,NNE,15,4.0,9.0,77,0.00,,,-99.99,,2013-04-11 06:32:00,
2013-04-11 01:42:00,34.0,28.0,-100.00,NNE,15,4.0,9.0,77,0.00,,,-99.99,,2013-04-11 06:42:00,
2013-04-11 01:52:00,34.0,27.0,-100.00,NNE,25,4.0,9.0,76,0.00,,,-99.99,,2013-04-11 06:52:00,
2013-04-11 02:02:00,34.0,27.0,-100.00,NNE,20,4.0,8.0,76,0.00,,,-99.99,,2013-04-11 07:02:00,
2013-04-11 02:12:00,34.0,27.0,-100.00,NNE,20,4.0,8.0,76,0.00,,,-99.99,,2013-04-11 07:12:00,
2013-04-11 02:22:00,34.0,27.0,-100.00,North,10,3.0,9.0,76,0.00,,,-99.99,,2013-04-11 07:22:00,
2013-04-11 02:32:00,34.0,27.0,-100.00,NNE,30,4.0,7.0,76,0.00,,,-99.99,,2013-04-11 07:32:00,
2013-04-11 02:42:00,34.0,27.0,-100.00,NNE,30,4.0,7.0,76,0.00,,,-99.99,,2013-04-11 07:42:00,
2013-04-11 02:52:00,34.0,27.0,-100.00,North,5,3.0,6.0,76,0.00,,,-99.99,,2013-04-11 07:52:00,
2013-04-11 03:03:00,34.0,27.0,-100.00,NNE,20,2.0,6.0,76,0.00,,,-99.99,,2013-04-11 08:03:00,
2013-04-11 03:12:00,34.0,27.0,-100.00,NNE,20,2.0,6.0,76,0.00,,,-99.99,,2013-04-11 08:12:00,
2013-04-11 03:22:00,34.0,27.0,-100.00,NNE,15,2.0,8.0,76,0.00,,,-99.99,,2013-04-11 08:22:00,
2013-04-11 03:32:00,34.0,27.0,-100.00,North,10,3.0,7.0,76,0.00,,,-99.99,,2013-04-11 08:32:00,
2013-04-11 03:42:00,34.0,27.0,-100.00,North,10,3.0,7.0,76,0.00,,,-99.99,,2013-04-11 08:42:00,
2013-04-11 03:52:00,34.0,27.0,-100.00,NE,35,2.0,7.0,76,0.00,,,-99.99,,2013-04-11 08:52:00,
2013-04-11 04:02:00,34.0,27.0,-100.00,NE,40,2.0,5.0,76,0.00,,,-99.99,,2013-04-11 09:02:00,
2013-04-11 04:12:00,34.0,27.0,-100.00,NE,40,2.0,5.0,76,0.00,,,-99.99,,2013-04-11 09:12:00,
2013-04-11 04:22:00,34.0,27.0,-100.00,NNE,15,2.0,6.0,76,0.00,,,-99.99,,2013-04-11 09:22:00,
2013-04-11 04:33:00,33.0,27.0,-100.00,North,355,4.0,7.0,76,0.00,,,-99.99,,2013-04-11 09:33:00,
2013-04-11 04:43:00,33.0,27.0,-100.00,North,355,4.0,7.0,76,0.00,,,-99.99,,2013-04-11 09:43:00,
2013-04-11 04:52:00,33.0,27.0,-100.00,NNE,30,3.0,7.0,76,0.00,,,-99.99,,2013-04-11 09:52:00,
2013-04-11 05:02:00,33.0,27.0,-100.00,ENE,60,4.0,9.0,76,0.00,,,-99.99,,2013-04-11 10:02:00,
2013-04-11 05:12:00,33.0,27.0,-100.00,ENE,60,4.0,9.0,76,0.00,,,-99.99,,2013-04-11 10:12:00,
2013-04-11 05:23:00,33.0,26.0,-100.00,NE,35,2.0,8.0,74,0.00,,,-99.99,,2013-04-11 10:23:00,
2013-04-11 05:32:00,33.0,26.0,-100.00,NNE,30,2.0,5.0,72,0.00,,,-99.99,,2013-04-11 10:32:00,
2013-04-11 05:42:00,33.0,26.0,-100.00,NNE,30,2.0,5.0,72,0.00,,,-99.99,,2013-04-11 10:42:00,
2013-04-11 05:52:00,33.0,24.0,-100.00,NE,40,3.0,7.0,68,0.00,,,-99.99,,2013-04-11 10:52:00,
2013-04-11 06:02:00,33.0,24.0,-100.00,NE,40,3.0,7.0,68,0.00,,,-99.99,,2013-04-11 11:02:00,
2013-04-11 06:12:00,34.0,24.0,-100.00,NE,45,4.0,8.0,66,0.00,,,-99.99,,2013-04-11 11:12:00,
2013-04-11 06:22:00,34.0,24.0,-100.00,NE,45,3.0,9.0,66,0.00,,,-99.99,,2013-04-11 11:22:00,
2013-04-11 06:32:00,33.0,23.0,-100.00,ENE,70,1.0,7.0,65,0.00,,,-99.99,,2013-04-11 11:32:00,
2013-04-11 06:42:00,33.0,23.0,-100.00,ENE,70,1.0,7.0,65,0.00,,,-99.99,,2013-04-11 11:42:00,
2013-04-11 06:52:00,33.0,22.0,-100.00,NE,45,2.0,9.0,64,0.00,,,-99.99,,2013-04-11 11:52:00,
2013-04-11 07:02:00,33.0,22.0,-100.00,NE,55,1.0,9.0,64,0.00,,,-99.99,,2013-04-11 12:02:00,
2013-04-11 07:12:00,33.0,22.0,-100.00,NE,55,1.0,9.0,64,0.00,,,-99.99,,2013-04-11 12:12:00,
2013-04-11 07:22:00,33.0,22.0,-100.00,NE,35,4.0,9.0,62,0.00,,,-99.99,,2013-04-11 12:22:00,
2013-04-11 07:32:00,33.0,21.0,-100.00,NE,55,2.0,9.0,61,0.00,,,-99.99,,2013-04-11 12:32:00,
2013-04-11 07:42:00,33.0,21.0,-100.00,NE,55,2.0,9.0,61,0.00,,,-99.99,,2013-04-11 12:42:00,
2013-04-11 07:52:00,33.0,21.0,-100.00,NE,45,1.0,9.0,61,0.00,,,-99.99,,2013-04-11 12:52:00,
2013-04-11 08:02:00,33.0,21.0,-100.00,NE,55,1.0,9.0,61,0.00,,,-99.99,,2013-04-11 13:02:00,
2013-04-11 08:12:00,33.0,21.0,-100.00,NE,55,1.0,9.0,61,0.00,,,-99.99,,2013-04-11 13:12:00,
2013-04-11 08:23:00,33.0,22.0,-100.00,NE,45,1.0,7.0,62,0.00,,,-99.99,,2013-04-11 13:23:00,
2013-04-11 08:32:00,33.0,22.0,-100.00,NE,45,1.0,7.0,62,0.00,,,-99.99,,2013-04-11 13:32:00,
2013-04-11 08:43:00,33.0,22.0,-100.00,NE,45,1.0,7.0,62,0.00,,,-99.99,,2013-04-11 13:43:00,
2013-04-11 09:02:00,31.0,26.0,-100.00,East,90,4.0,9.0,79,0.51,,,-99.99,,2013-04-11 14:02:00,
2013-04-11 09:12:00,31.0,26.0,-100.00,East,90,4.0,9.0,79,0.51,,,-99.99,,2013-04-11 14:12:00,
2013-04-11 09:22:00,31.0,27.0,-100.00,NE,35,1.0,6.0,86,0.27,,,-99.99,,2013-04-11 14:22:00,
2013-04-11 09:32:00,31.0,27.0,-100.00,NNE,25,3.0,7.0,87,0.78,,,-99.99,,2013-04-11 14:32:00,
2013-04-11 09:42:00,31.0,27.0,-100.00,NNE,25,3.0,7.0,87,0.78,,,-99.99,,2013-04-11 14:42:00,
2013-04-11 09:52:00,31.0,29.0,-100.00,ENE,60,2.0,8.0,90,0.30,,,-99.99,,2013-04-11 14:52:00,
2013-04-11 10:02:00,31.0,29.0,-100.00,NE,40,4.0,7.0,91,0.25,,,-99.99,,2013-04-11 15:02:00,
2013-04-11 10:12:00,31.0,29.0,-100.00,NE,40,4.0,7.0,91,0.25,,,-99.99,,2013-04-11 15:12:00,
2013-04-11 10:22:00,30.0,29.0,-100.00,NNE,20,2.0,9.0,92,0.52,,,-99.99,,2013-04-11 15:22:00,
2013-04-11 10:32:00,30.0,29.0,-100.00,NNE,25,6.0,9.0,94,0.38,,,-99.99,,2013-04-11 15:32:00,
2013-04-11 10:43:00,30.0,29.0,-100.00,NNE,25,6.0,9.0,94,0.38,,,-99.99,,2013-04-11 15:43:00,
2013-04-11 10:52:00,31.0,29.0,-100.00,NNE,25,5.0,9.0,94,0.74,,,-99.99,,2013-04-11 15:52:00,
2013-04-11 11:02:00,31.0,30.0,-100.00,NNE,25,4.0,9.0,95,0.88,,,-99.99,,2013-04-11 16:02:00,
2013-04-11 11:13:00,31.0,30.0,-100.00,NNE,25,4.0,9.0,95,0.88,,,-99.99,,2013-04-11 16:13:00,
2013-04-11 11:23:00,30.0,29.0,-100.00,NNE,25,6.0,9.0,96,1.30,,,-99.99,,2013-04-11 16:23:00,
2013-04-11 11:32:00,31.0,30.0,-100.00,North,0,3.0,9.0,96,1.19,,,-99.99,,2013-04-11 16:32:00,
2013-04-11 11:42:00,31.0,30.0,-100.00,North,0,3.0,9.0,96,1.19,,,-99.99,,2013-04-11 16:42:00,
2013-04-11 11:52:00,31.0,30.0,-100.00,NNE,30,4.0,9.0,97,1.16,,,-99.99,,2013-04-11 16:52:00,
2013-04-11 12:02:00,31.0,30.0,-100.00,NNE,30,5.0,9.0,97,0.88,,,-99.99,,2013-04-11 17:02:00,
2013-04-11 12:12:00,31.0,30.0,-100.00,NNE,30,5.0,9.0,97,0.88,,,-99.99,,2013-04-11 17:12:00,
2013-04-11 12:23:00,31.0,31.0,-100.00,NNE,25,4.0,9.0,97,0.23,,,-99.99,,2013-04-11 17:23:00,
2013-04-11 12:32:00,31.0,31.0,-100.00,NE,35,4.0,9.0,98,0.28,,,-99.99,,2013-04-11 17:32:00,
2013-04-11 12:43:00,31.0,31.0,-100.00,NE,35,4.0,9.0,98,0.28,,,-99.99,,2013-04-11 17:43:00,
2013-04-11 12:52:00,32.0,31.0,-100.00,North,0,6.0,9.0,98,0.27,,,-99.99,,2013-04-11 17:52:00,
2013-04-11 13:03:00,33.0,32.0,-100.00,NNE,25,5.0,9.0,98,0.11,,,-99.99,,2013-04-11 18:03:00,
2013-04-11 13:13:00,33.0,32.0,-100.00,NNE,25,5.0,9.0,98,0.11,,,-99.99,,2013-04-11 18:13:00,
2013-04-11 13:33:00,33.0,32.0,-100.00,NE,40,5.0,9.0,98,0.06,,,-99.99,,2013-04-11 18:33:00,
2013-04-11 13:42:00,33.0,32.0,-100.00,NE,40,5.0,9.0,98,0.06,,,-99.99,,2013-04-11 18:42:00,
2013-04-11 13:52:00,32.0,32.0,-100.00,NNE,30,6.0,9.0,97,0.01,,,-99.99,,2013-04-11 18:52:00,
2013-04-11 14:03:00,32.0,31.0,-100.00,NNE,30,4.0,9.0,97,0.01,,,-99.99,,2013-04-11 19:03:00,
2013-04-11 14:14:00,32.0,31.0,-100.00,NNE,30,4.0,9.0,97,0.01,,,-99.99,,2013-04-11 19:14:00,
2013-04-11 14:22:00,32.0,31.0,-100.00,NNE,25,6.0,9.0,96,0.03,,,-99.99,,2013-04-11 19:22:00,
2013-04-11 14:32:00,33.0,31.0,-100.00,NNE,20,4.0,9.0,95,0.01,,,-99.99,,2013-04-11 19:32:00,
2013-04-11 14:43:00,33.0,31.0,-100.00,NNE,20,4.0,9.0,95,0.01,,,-99.99,,2013-04-11 19:43:00,
2013-04-11 14:52:00,32.0,31.0,-100.00,NNE,30,4.0,9.0,94,0.00,,,-99.99,,2013-04-11 19:52:00,
2013-04-11 15:02:00,33.0,31.0,-100.00,NNE,30,4.0,9.0,94,0.00,,,-99.99,,2013-04-11 20:02:00,
2013-04-11 15:13:00,33.0,31.0,-100.00,NNE,30,4.0,9.0,94,0.00,,,-99.99,,2013-04-11 20:13:00,
2013-04-11 15:22:00,33.0,31.0,-100.00,NE,35,6.0,9.0,92,0.00,,,-99.99,,2013-04-11 20:22:00,
2013-04-11 15:33:00,33.0,31.0,-100.00,NNE,25,4.0,9.0,91,0.00,,,-99.99,,2013-04-11 20:33:00,
2013-04-11 15:42:00,33.0,31.0,-100.00,NNE,25,4.0,9.0,91,0.00,,,-99.99,,2013-04-11 20:42:00,
2013-04-11 15:52:00,33.0,30.0,-100.00,NNE,30,6.0,9.0,90,0.00,,,-99.99,,2013-04-11 20:52:00,
2013-04-11 16:02:00,33.0,30.0,-100.00,NNE,30,6.0,9.0,90,0.00,,,-99.99,,2013-04-11 21:02:00,
2013-04-11 16:12:00,33.0,30.0,-100.00,NNE,30,6.0,9.0,90,0.00,,,-99.99,,2013-04-11 21:12:00,
2013-04-11 16:22:00,33.0,30.0,-100.00,NE,40,4.0,9.0,89,0.00,,,-99.99,,2013-04-11 21:22:00,
2013-04-11 16:33:00,33.0,30.0,-100.00,NE,35,5.0,9.0,89,0.00,,,-99.99,,2013-04-11 21:33:00,
2013-04-11 16:42:00,33.0,30.0,-100.00,NE,35,5.0,9.0,89,0.00,,,-99.99,,2013-04-11 21:42:00,
2013-04-11 16:53:00,33.0,30.0,-100.00,NNE,25,4.0,9.0,88,0.00,,,-99.99,,2013-04-11 21:53:00,
2013-04-11 17:03:00,33.0,30.0,-100.00,NE,40,6.0,9.0,88,0.00,,,-99.99,,2013-04-11 22:03:00,
2013-04-11 17:13:00,33.0,30.0,-100.00,NE,40,6.0,9.0,88,0.00,,,-99.99,,2013-04-11 22:13:00,
2013-04-11 17:23:00,33.0,30.0,-100.00,NE,35,4.0,9.0,87,0.00,,,-99.99,,2013-04-11 22:23:00,
2013-04-11 17:33:00,33.0,30.0,-100.00,NE,35,5.0,9.0,87,0.01,,,-99.99,,2013-04-11 22:33:00,
2013-04-11 17:44:00,33.0,30.0,-100.00,NE,35,5.0,9.0,87,0.01,,,-99.99,,2013-04-11 22:44:00,
2013-04-11 17:52:00,33.0,29.0,-100.00,NE,45,3.0,9.0,87,0.00,,,-99.99,,2013-04-11 22:52:00,
2013-04-11 18:03:00,33.0,30.0,-100.00,NE,35,4.0,9.0,88,0.00,,,-99.99,,2013-04-11 23:03:00,
2013-04-11 18:13:00,33.0,30.0,-100.00,NE,35,4.0,9.0,88,0.00,,,-99.99,,2013-04-11 23:13:00,
2013-04-11 18:23:00,33.0,29.0,-100.00,NE,35,5.0,9.0,88,0.00,,,-99.99,,2013-04-11 23:23:00,
2013-04-11 18:32:00,32.0,29.0,-100.00,NE,45,4.0,9.0,88,0.00,,,-99.99,,2013-04-11 23:32:00,
2013-04-11 18:42:00,32.0,29.0,-100.00,NE,45,4.0,9.0,88,0.00,,,-99.99,,2013-04-11 23:42:00,
2013-04-11 18:53:00,32.0,29.0,-100.00,NE,35,6.0,9.0,89,0.00,,,-99.99,,2013-04-11 23:53:00,
2013-04-11 19:02:00,32.0,29.0,-100.00,NE,40,4.0,9.0,89,0.00,,,-99.99,,2013-04-12 00:02:00,
2013-04-11 19:12:00,32.0,29.0,-100.00,NE,40,4.0,9.0,89,0.00,,,-99.99,,2013-04-12 00:12:00,
2013-04-11 19:22:00,31.0,29.0,-100.00,NNE,25,4.0,9.0,90,0.00,,,-99.99,,2013-04-12 00:22:00,
2013-04-11 19:32:00,31.0,29.0,-100.00,NE,35,4.0,9.0,91,0.00,,,-99.99,,2013-04-12 00:32:00,
2013-04-11 19:42:00,31.0,29.0,-100.00,NE,35,4.0,9.0,91,0.00,,,-99.99,,2013-04-12 00:42:00,
2013-04-11 19:52:00,31.0,29.0,-100.00,NE,40,5.0,9.0,91,0.03,,,-99.99,,2013-04-12 00:52:00,
2013-04-11 20:02:00,31.0,29.0,-100.00,NE,45,5.0,9.0,92,0.01,,,-99.99,,2013-04-12 01:02:00,
2013-04-11 20:12:00,31.0,29.0,-100.00,NE,45,5.0,9.0,92,0.01,,,-99.99,,2013-04-12 01:12:00,
2013-04-11 20:22:00,31.0,29.0,-100.00,NE,50,4.0,9.0,92,0.04,,,-99.99,,2013-04-12 01:22:00,
2013-04-11 20:32:00,30.0,29.0,-100.00,NNE,20,3.0,8.0,93,0.04,,,-99.99,,2013-04-12 01:32:00,
2013-04-11 20:42:00,30.0,29.0,-100.00,NNE,20,3.0,8.0,93,0.04,,,-99.99,,2013-04-12 01:42:00,
2013-04-11 20:52:00,30.0,29.0,-100.00,NNE,20,4.0,9.0,94,0.04,,,-99.99,,2013-04-12 01:52:00,
2013-04-11 21:03:00,30.0,29.0,-100.00,NNE,25,4.0,9.0,94,0.07,,,-99.99,,2013-04-12 02:03:00,
2013-04-11 21:12:00,30.0,29.0,-100.00,NNE,25,4.0,9.0,94,0.07,,,-99.99,,2013-04-12 02:12:00,
2013-04-11 21:22:00,30.0,29.0,-100.00,NNE,20,5.0,9.0,95,0.34,,,-99.99,,2013-04-12 02:22:00,
2013-04-11 21:32:00,29.0,28.0,-100.00,NNE,30,5.0,9.0,96,0.11,,,-99.99,,2013-04-12 02:32:00,
2013-04-11 21:42:00,29.0,28.0,-100.00,NNE,30,5.0,9.0,96,0.11,,,-99.99,,2013-04-12 02:42:00,
2013-04-11 21:52:00,29.0,28.0,-100.00,NE,40,4.0,9.0,96,0.03,,,-99.99,,2013-04-12 02:52:00,
2013-04-11 22:02:00,29.0,28.0,-100.00,NNE,30,2.0,9.0,96,0.04,,,-99.99,,2013-04-12 03:02:00,
2013-04-11 22:12:00,29.0,28.0,-100.00,NNE,30,2.0,9.0,96,0.04,,,-99.99,,2013-04-12 03:12:00,
2013-04-11 22:22:00,29.0,28.0,-100.00,NNE,20,4.0,9.0,97,0.07,,,-99.99,,2013-04-12 03:22:00,
2013-04-11 22:33:00,29.0,28.0,-100.00,NNE,30,6.0,9.0,97,0.01,,,-99.99,,2013-04-12 03:33:00,
2013-04-11 22:43:00,29.0,28.0,-100.00,NNE,30,6.0,9.0,97,0.01,,,-99.99,,2013-04-12 03:43:00,
2013-04-11 22:52:00,29.0,28.0,-100.00,NNE,15,4.0,9.0,98,0.03,,,-99.99,,2013-04-12 03:52:00,
2013-04-11 23:03:00,29.0,28.0,-100.00,North,10,2.0,7.0,98,0.00,,,-99.99,,2013-04-12 04:03:00,
2013-04-11 23:13:00,29.0,28.0,-100.00,North,10,2.0,7.0,98,0.00,,,-99.99,,2013-04-12 04:13:00,
2013-04-11 23:23:00,29.0,28.0,-100.00,NE,40,4.0,7.0,98,0.00,,,-99.99,,2013-04-12 04:23:00,
2013-04-11 23:33:00,29.0,28.0,-100.00,North,10,3.0,9.0,98,0.01,,,-99.99,,2013-04-12 04:33:00,
2013-04-11 23:43:00,29.0,28.0,-100.00,North,10,3.0,9.0,98,0.01,,,-99.99,,2013-04-12 04:43:00,
2013-04-11 23:52:00,28.0,28.0,-100.00,North,0,4.0,9.0,98,0.00,,,-99.99,,2013-04-12 04:52:00,